When you browse on this site, cookies collect data to enhance your experience and personalize the content and advertising you see.
Visit our Privacy Policy to learn more. By continuing to use the site, you agree to this use of cookies and data.
  • In Czech Republic
  • List of Countries
  • For 7 days
  • Water Temperature
  • Weather Map
  • Weather Widgets
  • user-avatar
    Login

    Hourly Weather Mons

    Today, 2 June, Tuesday

    Time Temperature Precipitation Wind Pressure Humidity
    00:00 +16°C° 0 mm 2 mps 761 mmHg 62%
    01:00 +16°C° 0 mm 2 mps 761 mmHg 64%
    02:00 +15°C° 0 mm 2 mps 761 mmHg 67%
    03:00 +15°C° 0 mm 1 mps 761 mmHg 69%
    04:00 +16°C° 0 mm 1 mps 761 mmHg 69%
    05:00 +18°C° 0 mm 1 mps 761 mmHg 69%
    06:00 +19°C° 0 mm 1 mps 761 mmHg 68%
    07:00 +21°C° 0 mm 1 mps 760 mmHg 63%
    08:00 +23°C° 0 mm 1 mps 760 mmHg 59%
    09:00 +24°C° 0 mm 1 mps 760 mmHg 55%
    10:00 +25°C° 0 mm 1 mps 760 mmHg 51%
    11:00 +26°C° 0 mm 1 mps 760 mmHg 47%
    12:00 +28°C° 0 mm 1 mps 759 mmHg 43%
    13:00 +28°C° 0 mm 2 mps 759 mmHg 43%
    14:00 +28°C° 0 mm 2 mps 758 mmHg 43%
    15:00 +28°C° 0 mm 3 mps 758 mmHg 43%
    16:00 +26°C° 0 mm 3 mps 758 mmHg 50%
    17:00 +24°C° 0 mm 3 mps 757 mmHg 56%
    18:00 +21°C° 0 mm 4 mps 757 mmHg 62%
    19:00 +19°C° 0 mm 3 mps 757 mmHg 66%
    20:00 +17°C° 0 mm 3 mps 757 mmHg 69%
    21:00 +15°C° 0 mm 2 mps 757 mmHg 72%
    22:00 +15°C° 0 mm 2 mps 756 mmHg 75%
    23:00 +14°C° 0 mm 1 mps 756 mmHg 78%

    Tomorrow, 3 June, Wednesday

    Time Temperature Precipitation Wind Pressure Humidity
    00:00 +13°C° 0 mm 1 mps 756 mmHg 81%
    01:00 +13°C° 0 mm 1 mps 755 mmHg 83%
    02:00 +13°C° 0 mm 1 mps 755 mmHg 84%
    03:00 +13°C° 0 mm 1 mps 754 mmHg 85%
    04:00 +14°C° 0 mm 1 mps 754 mmHg 84%
    05:00 +14°C° 0 mm 1 mps 753 mmHg 82%
    06:00 +15°C° 0 mm 1 mps 753 mmHg 81%
    07:00 +17°C° 0 mm 2 mps 753 mmHg 76%
    08:00 +18°C° 0 mm 2 mps 753 mmHg 71%
    09:00 +19°C° 0 mm 2 mps 752 mmHg 66%
    10:00 +20°C° 0.1 mm 2 mps 752 mmHg 61%
    11:00 +21°C° 0.1 mm 2 mps 751 mmHg 57%
    12:00 +22°C° 0.1 mm 3 mps 751 mmHg 53%
    13:00 +22°C° 0.1 mm 3 mps 750 mmHg 51%
    14:00 +22°C° 0.1 mm 3 mps 750 mmHg 50%
    15:00 +22°C° 0.1 mm 4 mps 750 mmHg 48%
    16:00 +21°C° 0 mm 4 mps 749 mmHg 55%
    17:00 +20°C° 0 mm 4 mps 749 mmHg 61%
    18:00 +18°C° 0 mm 4 mps 749 mmHg 67%
    19:00 +17°C° 0 mm 4 mps 749 mmHg 74%
    20:00 +14°C° 0 mm 4 mps 749 mmHg 81%
    21:00 +12°C° 0 mm 3 mps 749 mmHg 88%
    22:00 +12°C° 0 mm 3 mps 749 mmHg 91%
    23:00 +11°C° 0 mm 3 mps 749 mmHg 94%

    Day after tomorrow, 4 June, Thursday

    Time Temperature Precipitation Wind Pressure Humidity
    00:00 +10°C° 0 mm 3 mps 748 mmHg 97%
    01:00 +11°C° 0 mm 3 mps 748 mmHg 94%
    02:00 +12°C° 0 mm 4 mps 748 mmHg 91%
    03:00 +12°C° 0 mm 4 mps 747 mmHg 88%
    04:00 +13°C° 0 mm 4 mps 747 mmHg 85%
    05:00 +13°C° 0 mm 4 mps 747 mmHg 83%
    06:00 +13°C° 0 mm 4 mps 747 mmHg 81%
    07:00 +14°C° 0.1 mm 4 mps 747 mmHg 80%
    08:00 +14°C° 0.1 mm 5 mps 747 mmHg 78%
    09:00 +15°C° 0.1 mm 5 mps 747 mmHg 77%
    10:00 +15°C° 0.2 mm 5 mps 747 mmHg 74%
    11:00 +15°C° 0.2 mm 6 mps 747 mmHg 72%
    12:00 +16°C° 0.2 mm 6 mps 747 mmHg 69%
    13:00 +15°C° 0.2 mm 6 mps 747 mmHg 69%
    14:00 +15°C° 0.2 mm 6 mps 747 mmHg 70%
    15:00 +15°C° 0.2 mm 6 mps 747 mmHg 70%
    16:00 +14°C° 0 mm 6 mps 747 mmHg 68%
    17:00 +14°C° 0 mm 6 mps 747 mmHg 65%
    18:00 +13°C° 0 mm 6 mps 747 mmHg 63%
    19:00 +10°C° 0 mm 5 mps 748 mmHg 69%
    20:00 +9°C° 0 mm 3 mps 748 mmHg 76%
    21:00 +8°C° 0 mm 2 mps 748 mmHg 82%
    22:00 +7°C° 0 mm 2 mps 748 mmHg 83%
    23:00 +7°C° 0 mm 2 mps 748 mmHg 85%

    5 June, Friday

    Time Temperature Precipitation Wind Pressure Humidity
    00:00 +7°C° 0 mm 2 mps 748 mmHg 86%
    01:00 +7°C° 0.1 mm 2 mps 748 mmHg 87%
    02:00 +7°C° 0.1 mm 3 mps 748 mmHg 88%
    03:00 +8°C° 0.1 mm 3 mps 748 mmHg 89%
    04:00 +8°C° 0 mm 4 mps 748 mmHg 88%
    05:00 +8°C° 0 mm 4 mps 747 mmHg 87%
    06:00 +9°C° 0 mm 5 mps 747 mmHg 86%
    07:00 +12°C° 0.6 mm 5 mps 747 mmHg 84%
    08:00 +13°C° 0.6 mm 6 mps 747 mmHg 81%
    09:00 +14°C° 0.6 mm 7 mps 746 mmHg 79%
    10:00 +15°C° 0.7 mm 7 mps 746 mmHg 73%
    11:00 +15°C° 0.7 mm 8 mps 746 mmHg 68%
    12:00 +16°C° 0.7 mm 8 mps 746 mmHg 63%
    13:00 +16°C° 0.1 mm 8 mps 746 mmHg 62%
    14:00 +16°C° 0.1 mm 8 mps 746 mmHg 62%
    15:00 +16°C° 0.1 mm 8 mps 746 mmHg 62%
    16:00 +15°C° 0.1 mm 7 mps 746 mmHg 68%
    17:00 +14°C° 0.1 mm 6 mps 746 mmHg 75%
    18:00 +12°C° 0.1 mm 5 mps 746 mmHg 81%
    19:00 +12°C° 0.1 mm 5 mps 746 mmHg 84%
    20:00 +12°C° 0.1 mm 5 mps 746 mmHg 87%
    21:00 +10°C° 0.1 mm 5 mps 746 mmHg 90%
    22:00 +10°C° 0.9 mm 5 mps 746 mmHg 92%
    23:00 +12°C° 0.9 mm 5 mps 746 mmHg 93%

    6 June, Saturday

    Time Temperature Precipitation Wind Pressure Humidity
    00:00 +12°C° 0.9 mm 5 mps 746 mmHg 95%
    01:00 +10°C° 0.5 mm 5 mps 746 mmHg 95%
    02:00 +11°C° 0.5 mm 4 mps 746 mmHg 95%
    03:00 +10°C° 0.5 mm 3 mps 746 mmHg 95%
    04:00 +10°C° 0.1 mm 4 mps 747 mmHg 92%
    05:00 +11°C° 0.1 mm 4 mps 747 mmHg 90%
    06:00 +11°C° 0.1 mm 4 mps 748 mmHg 88%
    07:00 +12°C° 0 mm 5 mps 748 mmHg 77%
    08:00 +13°C° 0 mm 5 mps 749 mmHg 66%
    09:00 +14°C° 0 mm 6 mps 749 mmHg 56%
    10:00 +15°C° 0 mm 6 mps 749 mmHg 52%
    11:00 +15°C° 0 mm 7 mps 749 mmHg 49%
    12:00 +16°C° 0 mm 7 mps 750 mmHg 46%
    13:00 +16°C° 0 mm 7 mps 750 mmHg 46%
    14:00 +16°C° 0 mm 7 mps 750 mmHg 46%
    15:00 +16°C° 0 mm 7 mps 750 mmHg 47%
    16:00 +15°C° 0 mm 6 mps 750 mmHg 50%
    17:00 +14°C° 0 mm 6 mps 750 mmHg 54%
    18:00 +13°C° 0 mm 5 mps 750 mmHg 57%
    19:00 +11°C° 0 mm 4 mps 750 mmHg 62%
    20:00 +10°C° 0 mm 4 mps 751 mmHg 67%
    21:00 +8°C° 0 mm 3 mps 751 mmHg 71%
    22:00 +7°C° 0 mm 3 mps 751 mmHg 75%
    23:00 +7°C° 0 mm 3 mps 751 mmHg 78%

    7 June, Sunday

    Time Temperature Precipitation Wind Pressure Humidity
    00:00 +5°C° 0 mm 3 mps 751 mmHg 81%
    01:00 +5°C° 0 mm 3 mps 751 mmHg 83%
    02:00 +5°C° 0 mm 3 mps 751 mmHg 84%
    03:00 +5°C° 0 mm 3 mps 751 mmHg 86%
    04:00 +7°C° 0 mm 3 mps 751 mmHg 82%
    05:00 +7°C° 0 mm 4 mps 751 mmHg 77%
    06:00 +8°C° 0 mm 4 mps 751 mmHg 73%
    07:00 +10°C° 0 mm 5 mps 751 mmHg 69%
    08:00 +12°C° 0 mm 5 mps 752 mmHg 65%
    09:00 +14°C° 0 mm 6 mps 752 mmHg 60%
    10:00 +14°C° 0.2 mm 6 mps 752 mmHg 58%
    11:00 +15°C° 0.2 mm 7 mps 752 mmHg 56%
    12:00 +16°C° 0.2 mm 7 mps 752 mmHg 53%
    13:00 +16°C° 0.1 mm 7 mps 752 mmHg 56%
    14:00 +15°C° 0.1 mm 7 mps 752 mmHg 59%
    15:00 +15°C° 0.1 mm 7 mps 752 mmHg 62%
    16:00 +14°C° 0.1 mm 7 mps 752 mmHg 65%
    17:00 +14°C° 0.1 mm 6 mps 752 mmHg 68%
    18:00 +13°C° 0.1 mm 6 mps 752 mmHg 72%
    19:00 +13°C° 0 mm 6 mps 752 mmHg 75%
    20:00 +12°C° 0 mm 5 mps 752 mmHg 79%
    21:00 +10°C° 0 mm 5 mps 752 mmHg 82%
    22:00 +10°C° 0.1 mm 5 mps 752 mmHg 83%
    23:00 +10°C° 0.1 mm 6 mps 752 mmHg 84%
    Show more